Main page
METAR-TAF:

METAR-TAF

Airports :

Cross City Airport

Cross City, Florida, United States

latitude: 29-33-00N, longitude: 083-06-19W, elevation: 39 ft

Current weather observation

The report was made 35 minutes ago, at 12:35 UTC
Wind 12 mph from the South/Southwest with gusts up to 18 mph
Temperature 63°F
Humidity 82%
Pressure 29.84 in. Hg
Visibility: 10 miles
Scattered clouds at a height of 3400 ft

METAR: KCTY 231235Z AUTO 20010G16KT 10SM SCT034 17/14 A2984 RMK AO2

Time: 08:10 (13:10 UTC)


TAF: missing

Weather observations and forecasts of more than 4000 airports (METAR and TAF reports).

The available stations are represented by yellow and red dots on the map.

Hover mouse over dot to see the name of the station.

Then click to see weather observations and forecasts.

To change the map : click on the green buttons with a black cross to zoom in, on the green button with a dash to zoom out, or on the green arrows for adjacent maps.


METAR-TAF: